Location: Burland Observatory
(39.4088°N, 105.4217°W)
Time: 16:40:35
(UTC-07:00)

Vanguard 3 - Pass Details

Date: 13 December 2019
Orbit: 507 x 3263 km, 33.4° (Epoch: 22 January)

Event Time Altitude Azimuth Distance (km) Brightness Sun altitude
Rises 10:21:48 0° 270° (W) 4,340 10.7 23.7°
Reaches altitude 10° 10:24:15 10° 266° (W) 3,652 10.4 23.9°
Maximum altitude 10:34:08 61° 190° (S) 2,412 10.4 24.6°
Drops below altitude 10° 10:50:54 10° 116° (ESE) 5,902 12.2 25.6°
Sets 10:56:05 0° 113° (ESE) 7,115 12.5 25.9°
